Riverside, CA

8:19 AM PDT on April 26, 2018 (GMT -0700)
Riverside Municipal

Weather History for KRAL - June, 2014

Change the Weather History Date:

Friday, June 6, 2014

  Actual Average Record
Temperature  
Mean Temperature 73 °F 70 °F  
Max Temperature 85 °F 82 °F 103 °F (1973)
Min Temperature 60 °F 58 °F 41 °F (1925)
Degree Days  
Heating Degree Days 0 0  
Month to date heating degree days 0 0  
Since 1 June heating degree days 0 0  
Since 1 July heating degree days 803 1444  
Cooling Degree Days 8 6  
Month to date cooling degree days 54 31  
Year to date cooling degree days 432 208  
Since 1 June cooling degree days 54 31  
Growing Degree Days 22 (Base 50)    
Moisture  
Dew Point 55 °F    
Average Humidity 59    
Maximum Humidity 84    
Minimum Humidity 34    
Precipitation  
Precipitation 0.00 in 0.01 in 0.23 in (1934)
Month to date precipitation 0.00 0.02  
Year to date precipitation 1.72 9.11  
Since 1 July precipitation 2.87  
Snow  
Snow 0.00 in - - ()
Month to date snowfall 0.0  
Year to date snowfall 0.0  
Snow Depth 0.00 in    
Sea Level Pressure  
Sea Level Pressure 29.78 in    
Wind  
Wind Speed 4 mph (West)    
Max Wind Speed 16 mph    
Max Gust Speed 22 mph    
Visibility 9 miles    
Events      
T = Trace of Precipitation, MM = Missing Value Source: NWS Daily Summary

Daily Weather History Graph

Daily Weather History Graph

Search for Another Location

Airport or City:

Astronomy

Jun. 06, 2014 Rise Set
Actual Time 5:38 AM PDT 7:58 PM PDT
Civil Twilight 5:09 AM PDT 8:27 PM PDT
Nautical Twilight 4:34 AM PDT 9:03 PM PDT
Astronomical Twilight 3:55 AM PDT 9:41 PM PDT
Moon 1:38 PM PDT (6/6) 1:14 AM PDT (6/6)
Length of Visible Light 15h 17m
Length of Day
14h 20m
First Quarter, 59% of the Moon is Illuminated
Jun 6
First Quarter
Jun 12
Full
Jun 19
Last Quarter
Jun 27
New
Jul 5
First Quarter

Hourly Weather History & Observations

Time (PDT) Temp. Heat Index Dew Point Humidity Pressure Visibility Wind Dir Wind Speed Gust Speed Precip Events Conditions
12:53 AM 66.0 °F - 54.0 °F 65% 29.77 in 10.0 mi Calm Calm - N/A   Clear
1:53 AM 63.0 °F - 54.0 °F 72% 29.77 in 10.0 mi Calm Calm - N/A   Clear
2:53 AM 63.0 °F - 54.0 °F 72% 29.77 in 10.0 mi Calm Calm - N/A   Clear
3:53 AM 61.0 °F - 54.0 °F 78% 29.77 in 10.0 mi Calm Calm - N/A   Clear
4:53 AM 61.0 °F - 54.0 °F 78% 29.77 in 10.0 mi Calm Calm - N/A   Clear
5:53 AM 60.1 °F - 55.0 °F 83% 29.78 in 8.0 mi Calm Calm - N/A   Clear
6:53 AM 60.1 °F - 55.9 °F 86% 29.80 in 3.0 mi West 3.5 mph - N/A   Clear
8:53 AM 66.9 °F - 55.9 °F 68% 29.81 in 7.0 mi Variable 3.5 mph - N/A   Clear
9:53 AM 70.0 °F - 55.9 °F 61% 29.81 in 7.0 mi Variable 3.5 mph - N/A   Clear
10:53 AM 73.9 °F - 55.9 °F 53% 29.80 in 7.0 mi Variable 3.5 mph - N/A   Clear
11:53 AM 79.0 °F - 54.0 °F 42% 29.78 in 9.0 mi Variable 4.6 mph - N/A   Clear
12:53 PM 81.0 °F 80.5 °F 54.0 °F 39% 29.77 in 10.0 mi Variable 5.8 mph - N/A   Clear
2:53 PM 84.0 °F 82.6 °F 54.0 °F 35% 29.75 in 10.0 mi West 13.8 mph 20.7 mph N/A   Clear
3:53 PM 82.0 °F 81.2 °F 53.1 °F 37% 29.74 in 10.0 mi West 13.8 mph 21.9 mph N/A   Clear
4:53 PM 81.0 °F 80.5 °F 54.0 °F 39% 29.73 in 10.0 mi West 10.4 mph 20.7 mph N/A   Clear
5:53 PM 79.0 °F - 55.0 °F 44% 29.73 in 10.0 mi West 15.0 mph 20.7 mph N/A   Clear
6:53 PM 75.0 °F - 55.9 °F 51% 29.76 in 10.0 mi West 12.7 mph 18.4 mph N/A   Clear
7:53 PM 71.1 °F - 55.9 °F 59% 29.77 in 10.0 mi West 9.2 mph - N/A   Clear
8:53 PM 68.0 °F - 55.0 °F 63% 29.79 in 10.0 mi West 6.9 mph - N/A   Clear
9:53 PM 66.0 °F - 55.9 °F 70% 29.81 in 10.0 mi West 9.2 mph - N/A   Clear
10:53 PM 63.0 °F - 55.0 °F 75% 29.81 in 10.0 mi West 6.9 mph - N/A   Clear
11:53 PM 61.0 °F - 55.0 °F 81% 29.80 in 10.0 mi West 6.9 mph - N/A   Clear